Home   Weather   Amiens   Past weeks
Flag for France

Past Weather in Amiens, Hauts-de-France, France — Yesterday and Last 2 Weeks

Now
54 °F

Clear.


Feels Like: 52 °F
Forecast: 67 / 47 °F
Wind: 7 mph from Northwest

Location: Beauvais Airport

Current Time: Jun 20, 2019 at 11:30:04 pm

Latest Report: Jun 20, 2019 at 11:00 pm


Visibility: 10 mi

Pressure: 30.07 "Hg

Humidity: 82%

Dew Point: 48 °F

Location of AmiensLocation

Past Weather in Amiens — Graph

°F

Amiens Temperature Yesterday

Maximum temperature yesterday: 75 °F (at 1:30 pm)
Minimum temperature yesterday: 59 °F (at 6:00 am)
Average temperature yesterday: 67 °F

High & Low Weather Summary for the Past Weeks

 TemperatureHumidityPressure
High81 °F (Jun 18, 4:30 pm)100% (Jun 5, 10:30 pm)30.21 "Hg (Jun 5, 10:30 pm)
Low39 °F (Jun 11, 5:30 am)44% (Jun 17, 6:00 pm)29.59 "Hg (Jun 7, 5:30 pm)
Average60 °F77%29.93 "Hg
* Reported Jun 5 10:00 pm — Jun 20 10:00 pm, Amiens. Weather by CustomWeather, © 2019

Note: Actual official high and low records may vary slightly from our data, if they occured in-between our weather recording intervals... More about our weather records

Advertising

Amiens Weather History for the Previous 24 Hours

Scroll right to see more
 ConditionsComfort  
Time TempWeatherWind HumidityBarometerVisibility
10:00 pm
Thu, Jun 20
57 °FSunny.6 mph72%30.04 "Hg10 mi
9:30 pm61 °FSunny.8 mph68%30.04 "Hg10 mi
9:00 pm63 °FSunny.10 mph59%30.04 "Hg10 mi
8:30 pm64 °FPassing clouds.8 mph60%30.01 "HgN/A
8:00 pm64 °FSunny.10 mph56%30.01 "Hg10 mi
7:30 pm66 °FSunny.9 mph52%30.01 "Hg10 mi
7:00 pm66 °FSunny.9 mph49%30.01 "Hg10 mi
6:30 pm66 °FPassing clouds.10 mph49%30.01 "HgN/A
6:00 pm68 °FPassing clouds.12 mph46%30.01 "HgN/A
5:30 pm68 °FPassing clouds.14 mph49%29.98 "HgN/A
5:00 pm68 °FPassing clouds.12 mph49%29.98 "HgN/A
4:30 pm66 °FPassing clouds.14 mph52%29.98 "HgN/A
4:00 pm68 °FPassing clouds.12 mph53%29.98 "HgN/A
3:30 pm66 °FMostly cloudy.14 mph56%29.98 "HgN/A
3:00 pm66 °FBroken clouds.13 mph56%29.98 "HgN/A
2:30 pm66 °FMostly cloudy.13 mph60%29.98 "HgN/A
2:00 pm66 °FPartly sunny.10 mph56%29.98 "HgN/A
1:30 pm66 °FBroken clouds.13 mph60%29.98 "HgN/A
1:00 pm66 °FScattered clouds.8 mph60%29.98 "HgN/A
12:30 pm66 °FBroken clouds.8 mph64%29.95 "HgN/A
12:00 pm64 °FBroken clouds.12 mph64%29.95 "HgN/A
11:30 am64 °FBroken clouds.10 mph68%29.95 "HgN/A
11:00 am64 °FBroken clouds.9 mph73%29.95 "HgN/A
10:30 am61 °FBroken clouds.9 mph83%29.95 "HgN/A
10:00 am61 °FSunny.10 mph83%29.95 "Hg10 mi
9:30 am61 °FMore clouds than sun.9 mph83%29.92 "HgN/A
9:00 am59 °FMostly cloudy.7 mph94%29.92 "HgN/A
8:30 am59 °FPartly sunny.9 mph88%29.92 "HgN/A
8:00 am59 °FPartly sunny.5 mph94%29.92 "HgN/A
7:30 am59 °FLight rain. More clouds than sun.5 mph94%29.89 "HgN/A
7:00 am57 °FLight rain. Mostly cloudy.5 mph100%29.89 "Hg6 mi
6:30 am57 °FLight rain. Fog.6 mph94%29.89 "Hg3 mi
6:00 am59 °FLight rain. Partly sunny.10 mph88%29.89 "Hg4 mi
5:30 am59 °FRain. Passing clouds.8 mph94%29.89 "Hg4 mi
5:00 am59 °FPassing clouds.6 mph100%29.89 "Hg4 mi
4:30 am59 °FPassing clouds.3 mph94%29.86 "Hg4 mi
4:00 am59 °FOvercast.3 mph94%29.86 "Hg4 mi
3:30 am61 °FMostly cloudy.3 mph88%29.86 "Hg4 mi
3:00 am61 °FMostly cloudy.2 mph88%29.86 "Hg4 mi
2:30 am61 °FMostly cloudy.5 mph94%29.86 "Hg4 mi
2:00 am61 °FFog.6 mph94%29.89 "Hg3 mi
1:30 am61 °FClear.8 mph94%29.89 "Hg4 mi
1:00 am61 °FClear.5 mph94%29.86 "Hg4 mi
12:30 am61 °FPassing clouds.5 mph88%29.86 "Hg4 mi
12:00 am61 °FClear.5 mph94%29.86 "Hg10 mi
11:30 pm
Wed, Jun 19
61 °FClear.5 mph94%29.86 "Hg10 mi
11:00 pm61 °FClear.6 mph94%29.86 "Hg10 mi
Weather by CustomWeather, © 2019

See weather overview